Time,TemperatureF,DewpointF,PressureIn,WindDirection,WindDirectionDegrees,WindSpeedMPH,WindSpeedGustMPH,Humidity,HourlyPrecipIn,Conditions,Clouds,dailyrainin,SoftwareType,DateUTC
2013-03-20 07:50:00,46.0,31.6,30.01,West,281,0.0,6.0,57,0.00,,,0.00,Wunderground v.1.15,2013-03-20 14:50:00,
2013-03-20 07:55:00,46.2,31.8,30.01,West,281,0.0,6.0,57,0.00,,,0.00,Wunderground v.1.15,2013-03-20 14:55:00,
2013-03-20 08:00:00,46.9,31.1,30.01,West,281,0.0,0.0,54,0.00,,,0.00,Wunderground v.1.15,2013-03-20 15:00:00,
2013-03-20 08:10:00,48.4,28.5,30.01,WNW,287,0.0,0.0,46,0.00,,,0.00,Wunderground v.1.15,2013-03-20 15:10:00,
2013-03-20 08:15:00,49.6,26.8,30.01,WNW,286,0.0,0.0,41,0.00,,,0.00,Wunderground v.1.15,2013-03-20 15:15:00,
2013-03-20 08:20:00,50.9,26.8,30.01,WNW,286,0.0,0.0,39,0.00,,,0.00,Wunderground v.1.15,2013-03-20 15:20:00,
2013-03-20 08:30:00,53.5,29.1,30.01,WNW,286,0.0,0.0,39,0.00,,,0.00,Wunderground v.1.15,2013-03-20 15:30:00,
2013-03-20 08:35:00,54.4,29.3,30.01,WNW,286,0.0,0.0,38,0.00,,,0.00,Wunderground v.1.15,2013-03-20 15:35:00,
2013-03-20 08:40:00,55.2,30.7,30.01,WNW,286,0.0,0.0,39,0.00,,,0.00,Wunderground v.1.15,2013-03-20 15:40:00,
2013-03-20 08:50:00,56.7,32.0,30.01,WNW,286,0.0,0.0,39,0.00,,,0.00,Wunderground v.1.15,2013-03-20 15:50:00,
2013-03-20 08:55:00,56.8,30.1,30.01,WNW,289,0.0,2.0,36,0.00,,,0.00,Wunderground v.1.15,2013-03-20 15:55:00,
2013-03-20 09:00:00,56.8,32.7,30.01,NW,320,2.0,3.0,40,0.00,,,0.00,Wunderground v.1.15,2013-03-20 16:00:00,
2013-03-20 09:10:00,56.8,32.1,30.01,North,351,3.0,3.0,39,0.00,,,0.00,Wunderground v.1.15,2013-03-20 16:10:00,
2013-03-20 09:15:00,56.8,31.4,30.02,North,349,3.0,3.0,38,0.00,,,0.00,Wunderground v.1.15,2013-03-20 16:15:00,
2013-03-20 09:20:00,57.1,29.7,30.01,North,351,2.0,2.0,35,0.00,,,0.00,Wunderground v.1.15,2013-03-20 16:20:00,
2013-03-20 09:25:00,57.5,29.3,30.01,North,350,2.0,2.0,34,0.00,,,0.00,Wunderground v.1.15,2013-03-20 16:25:00,
2013-03-20 09:30:00,58.1,29.1,30.01,North,350,2.0,4.0,33,0.00,,,0.00,Wunderground v.1.15,2013-03-20 16:30:00,
2013-03-20 09:35:00,58.7,30.4,30.00,NNW,348,2.0,4.0,34,0.00,,,0.00,Wunderground v.1.15,2013-03-20 16:35:00,
2013-03-20 09:40:00,59.2,29.3,30.00,NNW,345,2.0,2.0,32,0.00,,,0.00,Wunderground v.1.15,2013-03-20 16:40:00,
2013-03-20 09:45:00,59.5,28.0,30.00,NNW,338,2.0,2.0,30,0.00,,,0.00,Wunderground v.1.15,2013-03-20 16:45:00,
2013-03-20 09:50:00,59.5,28.8,30.00,NNW,333,2.0,3.0,31,0.00,,,0.00,Wunderground v.1.15,2013-03-20 16:50:00,
2013-03-20 09:55:00,59.8,29.1,30.00,NNW,329,1.0,3.0,31,0.00,,,0.00,Wunderground v.1.15,2013-03-20 16:55:00,
2013-03-20 10:00:00,60.5,29.7,30.00,NNW,333,1.0,1.0,31,0.00,,,0.00,Wunderground v.1.15,2013-03-20 17:00:00,
2013-03-20 10:10:00,61.3,28.7,30.00,NNW,341,1.0,1.0,29,0.00,,,0.00,Wunderground v.1.15,2013-03-20 17:10:00,
2013-03-20 10:15:00,62.0,28.5,30.00,NNW,343,1.0,1.0,28,0.00,,,0.00,Wunderground v.1.15,2013-03-20 17:15:00,
2013-03-20 10:20:00,62.8,30.9,30.00,NNW,335,2.0,2.0,30,0.00,,,0.00,Wunderground v.1.15,2013-03-20 17:20:00,
2013-03-20 10:25:00,63.2,30.4,30.00,NNW,337,2.0,2.0,29,0.00,,,0.00,Wunderground v.1.15,2013-03-20 17:25:00,
2013-03-20 10:30:00,63.6,29.9,30.00,NW,323,2.0,2.0,28,0.00,,,0.00,Wunderground v.1.15,2013-03-20 17:30:00,
2013-03-20 10:35:00,64.0,31.1,30.00,NW,323,3.0,4.0,29,0.00,,,0.00,Wunderground v.1.15,2013-03-20 17:35:00,
2013-03-20 10:40:00,64.5,31.5,30.00,NNW,332,3.0,3.0,29,0.00,,,0.00,Wunderground v.1.15,2013-03-20 17:40:00,
2013-03-20 10:45:00,65.2,33.0,30.00,NNW,331,4.0,5.0,30,0.00,,,0.00,Wunderground v.1.15,2013-03-20 17:45:00,
2013-03-20 10:50:00,66.1,30.2,30.00,North,355,4.0,4.0,26,0.00,,,0.00,Wunderground v.1.15,2013-03-20 17:50:00,
2013-03-20 10:55:00,66.5,28.6,30.00,NNW,332,3.0,4.0,24,0.00,,,0.00,Wunderground v.1.15,2013-03-20 17:55:00,
2013-03-20 11:00:00,67.2,30.2,30.00,NNW,343,3.0,3.0,25,0.00,,,0.00,Wunderground v.1.15,2013-03-20 18:00:00,
2013-03-20 11:10:00,68.1,28.9,30.00,NNE,13,3.0,7.0,23,0.00,,,0.00,Wunderground v.1.15,2013-03-20 18:10:00,
2013-03-20 11:15:00,67.8,28.6,30.00,NNE,17,3.0,7.0,23,0.00,,,0.00,Wunderground v.1.15,2013-03-20 18:15:00,
2013-03-20 11:25:00,70.0,25.8,30.00,East,101,5.0,11.0,19,0.00,,,0.00,Wunderground v.1.15,2013-03-20 18:25:00,
2013-03-20 11:30:00,71.5,25.7,30.00,East,86,10.0,14.0,18,0.00,,,0.00,Wunderground v.1.15,2013-03-20 18:30:00,
2013-03-20 11:35:00,72.0,24.8,30.00,ENE,72,13.0,14.0,17,0.00,,,0.00,Wunderground v.1.15,2013-03-20 18:35:00,
2013-03-20 11:40:00,72.1,24.8,30.00,East,97,14.0,15.0,17,0.00,,,0.00,Wunderground v.1.15,2013-03-20 18:40:00,
2013-03-20 11:45:00,71.9,24.7,30.00,ESE,118,13.0,15.0,17,0.00,,,0.00,Wunderground v.1.15,2013-03-20 18:45:00,
2013-03-20 11:50:00,72.6,25.3,30.00,East,81,10.0,10.0,17,0.00,,,0.00,Wunderground v.1.15,2013-03-20 18:50:00,
2013-03-20 11:55:00,72.8,25.4,30.00,SE,144,10.0,10.0,17,0.00,,,0.00,Wunderground v.1.15,2013-03-20 18:55:00,
2013-03-20 12:00:00,73.5,24.5,30.00,East,95,9.0,9.0,16,0.00,,,0.00,Wunderground v.1.15,2013-03-20 19:00:00,
2013-03-20 12:10:00,73.8,24.8,30.00,SSE,151,6.0,6.0,16,0.00,,,0.00,Wunderground v.1.15,2013-03-20 19:10:00,
2013-03-20 12:15:00,73.5,24.5,30.00,NE,55,6.0,6.0,16,0.00,,,0.00,Wunderground v.1.15,2013-03-20 19:15:00,
2013-03-20 12:20:00,73.4,24.4,30.00,SE,125,8.0,10.0,16,0.00,,,0.00,Wunderground v.1.15,2013-03-20 19:20:00,
2013-03-20 12:25:00,73.3,22.8,30.00,SE,126,6.0,10.0,15,0.00,,,0.00,Wunderground v.1.15,2013-03-20 19:25:00,
2013-03-20 12:30:00,73.4,22.9,30.00,East,95,5.0,11.0,15,0.00,,,0.00,Wunderground v.1.15,2013-03-20 19:30:00,
2013-03-20 12:35:00,73.8,23.2,30.00,ESE,118,5.0,11.0,15,0.00,,,0.00,Wunderground v.1.15,2013-03-20 19:35:00,
2013-03-20 12:40:00,73.7,23.1,30.00,ESE,120,3.0,5.0,15,0.00,,,0.00,Wunderground v.1.15,2013-03-20 19:40:00,
2013-03-20 12:45:00,73.7,23.1,30.00,SE,135,1.0,11.0,15,0.00,,,0.00,Wunderground v.1.15,2013-03-20 19:45:00,
2013-03-20 12:50:00,74.4,23.7,30.00,South,174,3.0,3.0,15,0.00,,,0.00,Wunderground v.1.15,2013-03-20 19:50:00,
2013-03-20 12:55:00,74.2,21.9,30.00,East,88,4.0,7.0,14,0.00,,,0.00,Wunderground v.1.15,2013-03-20 19:55:00,
2013-03-20 13:00:00,74.9,22.5,30.00,SE,130,4.0,4.0,14,0.00,,,0.00,Wunderground v.1.15,2013-03-20 20:00:00,
2013-03-20 13:10:00,75.0,22.5,30.00,SSE,148,4.0,4.0,14,0.00,,,0.00,Wunderground v.1.15,2013-03-20 20:10:00,
2013-03-20 13:20:00,75.3,21.0,30.00,WSW,250,1.0,4.0,13,0.00,,,0.00,Wunderground v.1.15,2013-03-20 20:20:00,
2013-03-20 13:25:00,75.3,21.0,30.00,NNE,25,1.0,5.0,13,0.00,,,0.00,Wunderground v.1.15,2013-03-20 20:25:00,
2013-03-20 13:30:00,76.2,21.7,30.00,ENE,63,4.0,5.0,13,0.00,,,0.00,Wunderground v.1.15,2013-03-20 20:30:00,
2013-03-20 13:40:00,76.9,22.3,30.00,South,186,6.0,6.0,13,0.00,,,0.00,Wunderground v.1.15,2013-03-20 20:40:00,
2013-03-20 13:45:00,77.2,20.6,30.00,SSW,194,8.0,12.0,12,0.00,,,0.00,Wunderground v.1.15,2013-03-20 20:45:00,
2013-03-20 13:50:00,76.8,20.3,30.00,SSW,195,9.0,9.0,12,0.00,,,0.00,Wunderground v.1.15,2013-03-20 20:50:00,
2013-03-20 14:00:00,76.5,20.1,30.00,SW,221,6.0,13.0,12,0.00,,,0.00,Wunderground v.1.15,2013-03-20 21:00:00,
2013-03-20 14:10:00,76.3,15.7,30.00,SW,216,10.0,13.0,10,0.00,,,0.00,Wunderground v.1.15,2013-03-20 21:10:00,
2013-03-20 14:15:00,76.7,18.2,30.00,SSW,196,12.0,13.0,11,0.00,,,0.00,Wunderground v.1.15,2013-03-20 21:15:00,
2013-03-20 14:20:00,76.4,18.0,30.00,SSW,212,10.0,10.0,11,0.00,,,0.00,Wunderground v.1.15,2013-03-20 21:20:00,
2013-03-20 14:25:00,76.6,18.1,30.00,SSW,200,9.0,10.0,11,0.00,,,0.00,Wunderground v.1.15,2013-03-20 21:25:00,
2013-03-20 14:30:00,76.7,18.2,30.00,SW,223,11.0,11.0,11,0.00,,,0.00,Wunderground v.1.15,2013-03-20 21:30:00,
2013-03-20 14:35:00,76.4,15.7,30.00,SW,223,12.0,12.0,10,0.00,,,0.00,Wunderground v.1.15,2013-03-20 21:35:00,
2013-03-20 14:40:00,76.2,15.6,30.00,WSW,239,10.0,14.0,10,0.00,,,0.00,Wunderground v.1.15,2013-03-20 21:40:00,
2013-03-20 14:45:00,75.9,17.6,30.00,West,260,10.0,14.0,11,0.00,,,0.00,Wunderground v.1.15,2013-03-20 21:45:00,
2013-03-20 14:50:00,75.3,19.1,30.00,WNW,284,12.0,12.0,12,0.00,,,0.00,Wunderground v.1.15,2013-03-20 21:50:00,
2013-03-20 14:55:00,74.9,16.8,30.00,West,259,12.0,12.0,11,0.00,,,0.00,Wunderground v.1.15,2013-03-20 21:55:00,
2013-03-20 15:00:00,74.8,16.7,30.00,West,263,11.0,11.0,11,0.00,,,0.00,Wunderground v.1.15,2013-03-20 22:00:00,